Retour au catalogue

FENGYUN 1C DEB

LostSSO
NORAD 38729·DEBRIS·🇨🇳 China

Lancé May 10, 1999 depuis Taiyuan Satellite Launch Center

Loading…

Prochains Passages (prochaines 24 heures)

TLE

PériméSource: Space-Track

Époque: Sep 29, 2024, 07:43 UTC

1 38729U 99025ETW 24273.32203255  .00006167  00000-0  36217-2 0  9995
2 38729  99.2647 304.5320 0086126  77.6676 283.4116 14.06608196770692

Suivez FENGYUN 1C DEB en temps réel avec AllMySat

Download on the App Store